Flag for Argentina Weather past 2 weeks in Salta, Salta, Argentina

Now
55 °F

Passing clouds.


Feels Like: 55 °F
Forecast: 51 / 64 °F
Wind: 5 mph from North

Location: Salta Aerodrome

Current Time: May 27, 2015 at 5:18:49 AM

Latest Report: May 27, 2015 at 5:00 AM


Visibility: N/A

Pressure: 30.12 "Hg

Humidity: 88%

Dew point: 52 °F

Location of SaltaLocation

Historic Weather in Salta — Graph

°F

Salta temperature yesterday

Maximum temperature yesterday: 64 °F (at 4:00 PM)
Minimum temperature yesterday: 52 °F (at 7:00 AM)
Average temperature yesterday: 57 °F

Past Weeks' High & Low Weather Summary

 TemperatureHumidityPressure
High77 °F (May 23, 3:00 PM)100% (May 14, 12:00 AM)30.30 "Hg (May 14, 12:00 AM)
Low46 °F (May 15, 7:00 AM)42% (May 23, 3:00 PM)29.83 "Hg (May 23, 4:00 PM)
Average61 °F81%30.06 "Hg
* Reported May 12 4:00 AM — May 27 4:00 AM, Salta, Weather by CustomWeather, © 2015

Note: Actual official high and low records may vary slightly from our data, if they occured in-between our weather recording intervals... More about our weather records

Advertising

Salta weather history for previous 24 hours

 ConditionsComfort  
Time TempWeatherWind HumidityBarometerVisibility
4:00 AM
Wed, May 27
55 °FOvercast.No wind94%30.12 "HgN/A
3:00 AM55 °FOvercast.5 mph94%30.12 "HgN/A
2:00 AM55 °FPassing clouds.6 mph100%30.15 "HgN/A
1:00 AM57 °FDrizzle. Mostly cloudy.6 mph94%30.15 "Hg5 mi
12:00 AM57 °FLight rain. Mostly cloudy.No wind94%30.15 "Hg2 mi
11:00 PM
Tue, May 26
57 °FPartly cloudy.3 mph94%30.12 "HgN/A
10:00 PM59 °FPartly cloudy.6 mph88%30.12 "HgN/A
9:00 PM59 °FPassing clouds.5 mph88%30.09 "HgN/A
8:00 PM61 °FPassing clouds.5 mph83%30.07 "HgN/A
7:00 PM61 °FPassing clouds.5 mph83%30.04 "HgN/A
6:00 PM63 °FPartly cloudy.2 mph77%30.01 "HgN/A
5:00 PM64 °FBroken clouds.5 mph68%29.98 "HgN/A
4:00 PM64 °FBroken clouds.6 mph73%29.98 "HgN/A
3:00 PM63 °FBroken clouds.3 mph73%30.01 "HgN/A
2:00 PM61 °FPartly sunny.3 mph83%30.04 "HgN/A
1:00 PM59 °FMostly cloudy.3 mph88%30.07 "HgN/A
12:00 PM57 °FMostly cloudy.No wind94%30.09 "HgN/A
11:00 AM55 °FLow clouds.No wind94%30.09 "HgN/A
10:00 AM54 °FMore clouds than sun.2 mph100%30.09 "Hg4 mi
9:00 AM54 °FBroken clouds.No wind94%30.09 "Hg4 mi
8:00 AM54 °FFog.2 mph94%30.07 "Hg1 mi
7:00 AM52 °FScattered clouds.5 mph100%30.07 "HgN/A
6:00 AM54 °FPassing clouds.3 mph94%30.07 "HgN/A
5:00 AM54 °FPassing clouds.3 mph100%30.07 "Hg6 mi
Weather by CustomWeather, © 2015

See weather overviewHow to use our weather pages